Regional Weather Roundup
Issued by NWS Mt. Holly, NJ

Home | Current Version | Previous Version | Text Only | Print | Product List | Glossary On
Versions: 1 2 3 4 5 6 7 8 9 10 11 12 13 14 15 16 17 18 19 20 21 22 23 24 25 26 27 28 29 30 31 32 33 34 35 36 37 38 39 40 41 42 43 44 45 46 47 48 49 50
324
ASUS41 KPHI 280012
RWRPHI

REGIONAL WEATHER ROUNDUP
NATIONAL WEATHER SERVICE MOUNT HOLLY NJ
800 PM EDT TUE SEP 27 2016

NOTE:  "FAIR" INDICATES FEW OR NO CLOUDS BELOW 12,000 FEET WITH NO
SIGNIFICANT WEATHER AND/OR OBSTRUCTIONS TO VISIBILITY.

 * = STATION DOES NOT REPORT PRECIPITATION (E.G. RAIN, SNOW, ETC.)
        OR FOG.

NJZ015>026-280100-
SOUTHERN NEW JERSEY

CITY           SKY/WX    TMP DP  RH WIND       PRES   REMARKS
POMONA         MOCLDY    66  61  84 CALM      29.93S
6HR MIN TEMP:  66; 6HR MAX TEMP:  68;

WILDWOOD*        N/A     67  64  90 CALM      29.94S
MILLVILLE      CLOUDY    62  62 100 CALM      29.94R
WRIGHTSTOWN    CLEAR     65  62  92 S5        29.91R
MOUNT HOLLY    CLEAR     64  59  83 CALM      29.93R
TRENTON        CLEAR     63  52  67 N5        29.92R
6HR MIN TEMP:  63; 6HR MAX TEMP:  75;


$$
NJZ001>014-280100-
NORTHERN NEW JERSEY

CITY           SKY/WX    TMP DP  RH WIND       PRES   REMARKS
SUSSEX         CLEAR     57  54  89 CALM      29.94R
ANDOVER*         N/A     55  52  89 CALM      29.94R
MORRISTOWN     CLEAR     57  54  88 CALM      29.93R
NEWARK         PTCLDY    70  61  73 CALM      29.92R
TETERBORO      CLEAR     69  56  62 SW3       29.92R
CALDWELL       CLEAR     64  54  69 CALM      29.93R
SOMERVILLE     CLEAR     59  52  77 CALM      29.91R
ALLAIRE*       PTCLDY    66  63  90 CALM      29.94R
TOMS RIVER*    CLEAR     64  62  93 CALM      29.94R

$$
PAZ043-044-047-054-055-060>062-066>071-280100-
EASTERN PENNSYLVANIA

CITY           SKY/WX    TMP DP  RH WIND       PRES   REMARKS
PHILADELPHIA   CLEAR     69  57  65 S7        29.93R
6HR MIN TEMP:  69; 6HR MAX TEMP:  76;

NORTH PHILA    CLEAR     68  54  60 CALM      29.94R
BLUE BELL*     CLEAR     55  52  88 CALM      29.92R
DOYLESTOWN     CLEAR     61  53  75 CALM      29.93R
QUAKERTOWN*    CLEAR     57  50  77 CALM      29.94R
PERKASIE*      FAIR      55  54  94 CALM      29.95R
POTTSTOWN      CLEAR     60  50  69 N3        29.94R
LANCASTER      CLEAR     66  56  70 S7        29.92R
COATESVILLE    CLEAR     63  54  72 CALM      29.95R
READING        CLEAR     64  49  57 CALM      29.91R
6HR MIN TEMP:  62; 6HR MAX TEMP:  75;

ALLENTOWN      CLEAR     63  47  55 CALM      29.93R
6HR MIN TEMP:  62; 6HR MAX TEMP:  75;

MOUNT POCONO   CLEAR     53  48  83 CALM      29.97R
6HR MIN TEMP:  53; 6HR MAX TEMP:  67;

HAZLETON       CLEAR     54  46  76 CALM      29.97S
LEHIGHTON        N/A     54  52  94 CALM      29.94R
WILKES BARRE   CLEAR     62  46  55 VRB3      29.93R

$$
DEZALL-MDZ008-012-015-019-020-280100-
DELAWARE AND EASTERN MARYLAND

CITY           SKY/WX    TMP DP  RH WIND       PRES   REMARKS
WILMINGTON     PTCLDY    68  62  81 SE9       29.93R
6HR MIN TEMP:  68; 6HR MAX TEMP:  76;

DOVER          CLEAR     63  63  98 SE3       29.92S
GEORGETOWN     CLOUDY    66  64  93 SE3       29.94S
6HR MIN TEMP:  66; 6HR MAX TEMP:  69; 6HR PCP: TRACE;

EASTON         PTCLDY    64  61  88 CALM      29.97R
ABERDEEN       CLEAR     64  59  82 CALM      29.91
PATUXENT       CLOUDY    70  64  81 CALM      29.92S
OCEAN CITY     CLOUDY    70  66  87 NE3       29.92S
WALLOPS ISLAND RAIN      72  71  97 CALM      29.93R FOG
CAMBRIDGE      CLEAR     63  63 100 CALM      29.93R
SALISBURY      CLOUDY    68  67  96 N6        29.93R FOG

$$
PAZ001-021-NYZ056-072-MDZ011-DCZ001-280100-
OTHER NEARBY LOCATIONS

CITY           SKY/WX    TMP DP  RH WIND       PRES   REMARKS
HARRISBURG     CLEAR     62  57  83 SE3       29.90R
STATE COLLEGE  CLEAR     59  45  58 CALM      29.92R
WILLIAMSPORT   PTCLDY    60  54  80 CALM      29.89R
BINGHAMTON     CLEAR     59  44  57 S7        29.93R
NEW YORK CITY  CLEAR     67  61  81 VRB5      29.96R
BALTIMORE      PTCLDY    66  58  75 SE5       29.92R
WASHINGTON DC  PTCLDY    70  60  70 SE7       29.92R

$$




USA.gov is the U.S. government's official web portal to all federal, state and local government web resources and services.